THOR ABLESTAR DEB, 246

Orbit data source: Space-Track

THOR ABLESTAR DEB, 246 is space debris in LEO originally from a launch on Thu, 29 Jun 1961 UTC launched from the Air Force Eastern Test Range (AFETR). Debris objects in space refer to the collection of defunct objects orbiting the Earth. Examples of debris include non-operational satellites, rocket bodies, and fragments generated from explosions, collisions, or faulty payload assembly.

Loading next visibility...
Identifier
246, 1961-015CB
Orbit
LEO
Country
Flag of USUS
Related business
Manufacturer
Unknown
Mission
Spacecraft
Bus & Motor
Unknown
Mass
Unknown
Launch date (UTC)
1961-06-29 (64 years ago)
Launch vehicle
Unknown
Launch site
Air Force Eastern Test Range (AFETR)
Object type
Payload
Rocket body
Debris
Shape & HBR
Unknown
Radar Cross Section
Medium (>0.1 m² and <1 m²)

Expand to show TLE details & history
Last TLE update: 1 day ago

TLE from 1 day ago
0 THOR ABLESTAR DEB
1 00246U 61015CB  25260.00057276 -.00000008  00000-0  57535-4 0  9995
2 00246  66.8683 131.8658 0069402 321.3048  38.3067 13.86109319586002
Epoch: 2025-09-17T00:00Z
TLE epoch observation values (Epoch: 2025-09-17T00:00:49.486Z)
Latitude
-0.00007°
Longitude
135.47678°
Altitude
904.639 km
Speed
7.42 km/s
True Right ascension
08h 47m 27s
True Declination
0° 00' 00"
Sunlit
Object was in daylight at epoch
Visualization orbit readout
Latitude
Unknown
Longitude
Unknown
Altitude
Unknown
Speed
Unknown
Apparent Right ascension
Unknown
Apparent Declination
Unknown
Sunlit
N/A
Visualization observer readout
Local Sidereal Time
16:51:56
Azimuth
Unknown
Elevation
Unknown
Doppler factor
Unknown
Orbital elements
Apogee altitude
991.481 km
Perigee altitude
889.893 km
Semi-major axis
7,318.824 km
Eccentricity
0.00694
Inclination
66.8683°
RAAN
131.8658°
Arg. of periapsis
321.3048°
True anomaly
38.80305°
Mean anomaly
38.3067°
Eccentric anomaly
38.55454°
Mean motion
3.46642 °/min
Orbital period
103.85 mins
BSTAR
0.000057535
Loading maneuver chart data...
Computing Atmospheric mass density...

Documentation

Showing up to 5 results
|